Weather History for Ankeny, IA

Change the Weather History Date:

Wednesday, April 9, 2014

  Actual Average (KDSM) Record (KDSM)
Temperature  
Mean Temperature 50 °F 49 °F  
Max Temperature 73 °F 60 °F 86 °F (1977)
Min Temperature 26 °F 39 °F 19 °F (1997)
Degree Days  
Heating Degree Days 16 16  
Month to date heating degree days 158  
Since 1 July heating degree days 5785  
Cooling Degree Days 0 0  
Month to date cooling degree days 0  
Year to date cooling degree days 1  
Moisture  
Dew Point 29 °F    
Average Humidity 50    
Maximum Humidity 100    
Minimum Humidity 18    
Precipitation  
Precipitation 0.00 in 0.11 in 1.54 in (1919)
Month to date precipitation 0.92  
Year to date precipitation 5.50  
Snow  
Snow 0.00 in 0.00 in 10.30 in (1973)
Month to date snowfall 0.8  
Since 1 July snowfall 34.3  
Snow Depth -    
Sea Level Pressure  
Sea Level Pressure 29.89 in    
Wind  
Wind Speed 7 mph (SSW)    
Max Wind Speed 24 mph    
Max Gust Speed 32 mph    
Visibility 10 miles    
Events      
T = Trace of Precipitation, MM = Missing Value Source: NWS Daily Summary

Daily Weather History Graph

Daily Weather History Graph

Search for Another Location

Airport:

Trip Planner

Search our weather history database for the weather conditions in past years. The results will help you decide how hot, cold, wet, or windy it might be!

Date:

Astronomy

Apr. 09, 2014 Rise Set
Actual Time 6:43 AM CDT 7:48 PM CDT
Civil Twilight 6:15 AM CDT 8:16 PM CDT
Nautical Twilight 5:41 AM CDT 8:51 PM CDT
Astronomical Twilight 5:06 AM CDT 9:26 PM CDT
Moon 2:33 PM CDT (4/9) 3:37 AM CDT (4/9)
Length of Visible Light 14h 01m
Length of Day
13h 04m
Waxing Gibbous, 72% of the Moon is Illuminated
Apr 9
Waxing Gibbous
Apr 15
Full
Apr 22
Last Quarter
Apr 29
New
May 6
First Quarter

Hourly Weather History & Observations

Time (CDT) Temp. Windchill Dew Point Humidity Pressure Visibility Wind Dir Wind Speed Gust Speed Precip Events Conditions
12:15 AM 32.0 °F - 28.4 °F 87% 30.04 in 10.0 mi Calm Calm - N/A   Clear
12:35 AM 32.0 °F - 28.4 °F 87% 30.04 in 10.0 mi Calm Calm - N/A   Clear
12:55 AM 32.0 °F - 28.4 °F 87% 30.05 in 10.0 mi Calm Calm - N/A   Clear
1:15 AM 32.0 °F - 28.4 °F 87% 30.05 in 10.0 mi Calm Calm - N/A   Clear
1:35 AM 32.0 °F - 28.4 °F 87% 30.05 in 10.0 mi Calm Calm - N/A   Clear
1:55 AM 30.2 °F - 28.4 °F 93% 30.05 in 10.0 mi Calm Calm - N/A   Clear
2:15 AM 30.2 °F - 28.4 °F 93% 30.05 in 10.0 mi Calm Calm - N/A   Clear
2:35 AM 30.2 °F - 28.4 °F 93% 30.04 in 10.0 mi Calm Calm - N/A   Clear
2:55 AM 30.2 °F - 26.6 °F 86% 30.04 in 10.0 mi Calm Calm - N/A   Clear
3:15 AM 30.2 °F - 26.6 °F 86% 30.03 in 10.0 mi Calm Calm - N/A   Clear
3:35 AM 28.4 °F - 26.6 °F 93% 30.03 in 10.0 mi Calm Calm - N/A   Clear
3:55 AM 28.4 °F - 26.6 °F 93% 30.03 in 10.0 mi Calm Calm - N/A   Clear
4:15 AM 28.4 °F - 24.8 °F 86% 30.03 in 10.0 mi Calm Calm - N/A   Clear
4:35 AM 28.4 °F - 26.6 °F 93% 30.04 in 10.0 mi Calm Calm - N/A   Clear
4:55 AM 28.4 °F - 28.4 °F 100% 30.04 in 10.0 mi Calm Calm - N/A   Clear
5:15 AM 28.4 °F - 26.6 °F 93% 30.04 in 10.0 mi Calm Calm - N/A   Clear
5:35 AM 28.4 °F - 24.8 °F 86% 30.04 in 10.0 mi Calm Calm - N/A   Clear
5:55 AM 26.6 °F - 26.6 °F 100% 30.04 in 9.0 mi Calm Calm - N/A   Clear
6:15 AM 28.4 °F - 26.6 °F 93% 30.04 in 10.0 mi Calm Calm - N/A   Clear
6:35 AM 28.4 °F - 26.6 °F 93% 30.04 in 9.0 mi Calm Calm - N/A   Clear
6:55 AM 26.6 °F - 24.8 °F 93% 30.04 in 9.0 mi Calm Calm - N/A   Clear
7:15 AM 28.4 °F 24.6 °F 26.6 °F 93% 30.04 in 9.0 mi South 3.5 mph - N/A   Clear
7:35 AM 30.2 °F - 28.4 °F 93% 30.04 in 9.0 mi Calm Calm - N/A   Clear
7:55 AM 33.8 °F 29.6 °F 30.2 °F 87% 30.04 in 10.0 mi SSE 4.6 mph - N/A   Clear
8:15 AM 37.4 °F 33.8 °F 32.0 °F 81% 30.03 in 10.0 mi SSE 4.6 mph - N/A   Clear
8:35 AM 42.8 °F 38.6 °F 32.0 °F 66% 30.03 in 10.0 mi South 6.9 mph - N/A   Clear
8:55 AM 44.6 °F 40.2 °F 30.2 °F 57% 30.03 in 10.0 mi South 8.1 mph - N/A   Clear
9:15 AM 48.2 °F - 28.4 °F 46% 30.02 in 10.0 mi SSW 10.4 mph - N/A   Clear
9:35 AM 50.0 °F - 26.6 °F 40% 30.01 in 10.0 mi SSW 13.8 mph - N/A   Clear
9:55 AM 51.8 °F - 26.6 °F 38% 30.00 in 10.0 mi SSW 13.8 mph - N/A   Clear
10:15 AM 53.6 °F - 26.6 °F 35% 29.99 in 10.0 mi SSW 12.7 mph 19.6 mph N/A   Clear
10:35 AM 57.2 °F - 26.6 °F 31% 29.98 in 10.0 mi SW 15.0 mph - N/A   Clear
10:55 AM 59.0 °F - 24.8 °F 27% 29.97 in 10.0 mi SSW 16.1 mph 24.2 mph N/A   Clear
11:15 AM 60.8 °F - 23.0 °F 23% 29.95 in 10.0 mi SSW 15.0 mph 23.0 mph N/A   Clear
11:35 AM 62.6 °F - 24.8 °F 24% 29.94 in 10.0 mi SSW 15.0 mph 21.9 mph N/A   Clear
11:55 AM 62.6 °F - 24.8 °F 24% 29.93 in 10.0 mi South 15.0 mph 23.0 mph N/A   Clear
12:15 PM 64.4 °F - 24.8 °F 22% 29.91 in 10.0 mi SSW 18.4 mph 25.3 mph N/A   Clear
12:35 PM 66.2 °F - 24.8 °F 21% 29.89 in 10.0 mi South 19.6 mph 27.6 mph N/A   Clear
12:55 PM 66.2 °F - 24.8 °F 21% 29.88 in 10.0 mi SSW 18.4 mph 26.5 mph N/A   Clear
1:15 PM 68.0 °F - 24.8 °F 20% 29.87 in 10.0 mi SSW 18.4 mph 26.5 mph N/A   Clear
1:35 PM 69.8 °F - 24.8 °F 18% 29.85 in 10.0 mi South 21.9 mph 29.9 mph N/A   Clear
1:55 PM 69.8 °F - 26.6 °F 20% 29.85 in 10.0 mi SSW 20.7 mph 27.6 mph N/A   Clear
2:15 PM 69.8 °F - 26.6 °F 20% 29.83 in 10.0 mi SSW 18.4 mph 26.5 mph N/A   Clear
2:35 PM 71.6 °F - 26.6 °F 19% 29.82 in 10.0 mi SSW 16.1 mph 26.5 mph N/A   Clear
2:55 PM 71.6 °F - 26.6 °F 19% 29.80 in 10.0 mi SSW 23.0 mph 31.1 mph N/A   Clear
3:15 PM 71.6 °F - 28.4 °F 20% 29.79 in 10.0 mi SSW 16.1 mph 31.1 mph N/A   Clear
3:35 PM 71.6 °F - 26.6 °F 19% 29.78 in 10.0 mi SSW 19.6 mph 28.8 mph N/A   Clear
3:55 PM 73.4 °F - 28.4 °F 19% 29.77 in 10.0 mi SW 21.9 mph 29.9 mph N/A   Clear
4:15 PM 73.4 °F - 28.4 °F 19% 29.77 in 10.0 mi SSW 23.0 mph 31.1 mph N/A   Clear
4:35 PM 73.4 °F - 30.2 °F 20% 29.76 in 10.0 mi SSW 23.0 mph 29.9 mph N/A   Clear
4:55 PM 73.4 °F - 30.2 °F 20% 29.75 in 10.0 mi SSW 23.0 mph 29.9 mph N/A   Clear
5:15 PM 73.4 °F - 30.2 °F 20% 29.74 in 10.0 mi SSW 23.0 mph 32.2 mph N/A   Clear
5:35 PM 73.4 °F - 30.2 °F 20% 29.74 in 10.0 mi SSW 21.9 mph 32.2 mph N/A   Clear
5:55 PM 73.4 °F - 30.2 °F 20% 29.74 in 10.0 mi SSW 17.3 mph 28.8 mph N/A   Clear
6:15 PM 71.6 °F - 30.2 °F 22% 29.74 in 10.0 mi SSW 24.2 mph - N/A   Clear
6:35 PM 71.6 °F - 30.2 °F 22% 29.73 in 10.0 mi SSW 16.1 mph - N/A   Clear
6:55 PM 69.8 °F - 32.0 °F 25% 29.73 in 10.0 mi SSW 12.7 mph 20.7 mph N/A   Clear
7:15 PM 69.8 °F - 30.2 °F 23% 29.73 in 10.0 mi South 12.7 mph 20.7 mph N/A   Clear
7:35 PM 68.0 °F - 32.0 °F 26% 29.72 in 10.0 mi South 12.7 mph - N/A   Clear
7:55 PM 66.2 °F - 32.0 °F 28% 29.72 in 10.0 mi South 10.4 mph - N/A   Clear
8:15 PM 64.4 °F - 32.0 °F 30% 29.72 in 10.0 mi South 10.4 mph - N/A   Clear
8:35 PM 62.6 °F - 33.8 °F 34% 29.72 in 10.0 mi South 9.2 mph - N/A   Clear
8:55 PM 62.6 °F - 33.8 °F 34% 29.72 in 10.0 mi South 9.2 mph - N/A   Clear
9:15 PM 62.6 °F - 33.8 °F 34% 29.72 in 10.0 mi South 9.2 mph - N/A   Clear
9:35 PM 62.6 °F - 33.8 °F 34% 29.72 in 10.0 mi South 9.2 mph - N/A   Clear
9:55 PM 62.6 °F - 33.8 °F 34% 29.72 in 10.0 mi South 12.7 mph - N/A   Clear
10:35 PM 62.6 °F - 33.8 °F 34% 29.70 in 10.0 mi South 15.0 mph 21.9 mph N/A   Clear
10:55 PM 62.6 °F - 33.8 °F 34% 29.69 in 10.0 mi South 15.0 mph - N/A   Clear
11:15 PM 62.6 °F - 33.8 °F 34% 29.69 in 10.0 mi South 15.0 mph 23.0 mph N/A   Clear
11:35 PM 62.6 °F - 33.8 °F 34% 29.68 in 10.0 mi South 17.3 mph - N/A   Clear
11:55 PM 62.6 °F - 33.8 °F 34% 29.68 in 10.0 mi South 17.3 mph - N/A   Clear